| time (UTC) | temp F | wind direction | speed knots | gust knots | rain 1hr in | rain 24hr in | rain mn in | humidity % | barometer mb |
| 20260507220002 | 60 | 360 | 4.3 | 0.0 | 0.00 | 0.00 | 0.07 | 82 | 845.3 |
| 20260507214530 | 61 | 360 | 7.0 | 0.0 | 0.00 | 0.00 | 0.07 | 82 | 845.1 |
| 20260507213107 | 61 | 360 | 7.0 | 0.0 | 0.00 | 0.00 | 0.07 | 84 | 844.9 |
| 20260507211521 | 60 | 360 | 7.8 | 0.0 | 0.00 | 0.00 | 0.07 | 86 | 844.8 |
| 20260507210053 | 60 | 360 | 8.7 | 0.0 | 0.00 | 0.00 | 0.07 | 86 | 844.7 |
| 20260507204512 | 59 | 360 | 9.6 | 0.0 | 0.00 | 0.00 | 0.07 | 88 | 844.7 |
| 20260507203048 | 59 | 360 | 7.8 | 0.0 | 0.00 | 0.00 | 0.07 | 90 | 844.5 |
| 20260507201507 | 59 | 360 | 9.6 | 0.0 | 0.00 | 0.00 | 0.07 | 92 | 844.5 |
| 20260507200033 | 58 | 360 | 7.8 | 0.0 | 0.00 | 0.00 | 0.07 | 92 | 844.8 |
| 20260507194623 | 58 | 360 | 8.7 | 0.0 | 0.00 | 0.00 | 0.06 | 92 | 845.0 |
| 20260507193017 | 58 | 360 | 6.1 | 0.0 | 0.00 | 0.00 | 0.06 | 93 | 845.1 |
| 20260507191550 | 58 | 360 | 7.0 | 0.0 | 0.00 | 0.00 | 0.06 | 93 | 844.9 |
| 20260507190006 | 58 | 360 | 7.8 | 0.0 | 0.00 | 0.00 | 0.06 | 92 | 845.4 |
| 20260507184530 | 59 | 360 | 10.4 | 0.0 | 0.00 | 0.00 | 0.05 | 91 | 844.7 |
| 20260507183045 | 60 | 360 | 7.8 | 0.0 | 0.00 | 0.00 | 0.03 | 90 | 845.2 |
| 20260507181503 | 60 | 360 | 8.7 | 0.0 | 0.00 | 0.00 | 0.03 | 89 | 844.8 |
| 20260507180025 | 61 | 360 | 7.8 | 0.0 | 0.00 | 0.00 | 0.03 | 88 | 844.7 |
| 20260507174552 | 62 | 360 | 7.8 | 0.0 | 0.00 | 0.00 | 0.03 | 88 | 844.6 |
| 20260507173008 | 63 | 360 | 7.8 | 0.0 | 0.00 | 0.00 | 0.03 | 89 | 844.6 |
| 20260507171545 | 63 | 360 | 7.8 | 0.0 | 0.00 | 0.00 | 0.03 | 90 | 844.6 |
| 20260507170057 | 64 | 360 | 8.7 | 0.0 | 0.00 | 0.00 | 0.03 | 88 | 844.8 |
| 20260507164520 | 67 | 19 | 4.3 | 0.0 | 0.00 | 0.00 | 0.03 | 90 | 844.6 |
| 20260507163040 | 66 | 360 | 3.5 | 0.0 | 0.00 | 0.00 | 0.03 | 91 | 844.5 |
| 20260507161601 | 65 | 360 | 3.5 | 0.0 | 0.00 | 0.00 | 0.03 | 93 | 844.5 |
| 20260507160025 | 64 | 360 | 3.5 | 0.0 | 0.00 | 0.00 | 0.03 | 93 | 844.6 |
| 20260507154537 | 64 | 360 | 2.6 | 0.0 | 0.00 | 0.00 | 0.03 | 94 | 844.7 |
| 20260507153003 | 64 | 360 | 4.3 | 0.0 | 0.00 | 0.00 | 0.03 | 94 | 844.9 |
| 20260507151530 | 65 | 48 | 0.9 | 0.0 | 0.00 | 0.00 | 0.03 | 95 | 844.6 |
| 20260507150058 | 64 | 42 | 0.9 | 0.0 | 0.00 | 0.00 | 0.03 | 96 | 845.0 |
| 20260507144512 | 63 | 360 | 0.9 | 0.0 | 0.00 | 0.00 | 0.03 | 96 | 845.1 |
| 20260507143037 | 63 | 360 | 2.6 | 0.0 | 0.00 | 0.00 | 0.03 | 95 | 845.2 |